Location: Aurora Center
(43.5271°N, 98.5894°W)
Time: 02:18:22
(UTC-05:00)

YUBILEINY - Pass Details

Date: 04 August 2024
Orbit: 1478 x 1508 km, 82.5° (Epoch: 15 September)

Event Time Altitude Azimuth Distance (km) Brightness Sun altitude
Rises 21:34:55 0° 342° (NNW) 4,642 ? -7.6°
Reaches altitude 10° 21:38:27 10° 330° (NNW) 3,661 ? -8.2°
Maximum altitude 21:45:02 25° 280° (W) 2,691 ? -9.2°
Drops below altitude 10° 21:51:39 10° 231° (SW) 3,657 ? -10.2°
Sets 21:55:12 0° 219° (SW) 4,636 ? -10.7°
